Вернуться в каталог

FENGYUN 1C DEB

АктивенPO
NORAD 30106·DEBRIS·🇨🇳 China

Запущен May 10, 1999 с Taiyuan Satellite Launch Center

Loading…

Ближайшие Пролёты (ближайшие 24 часа)

TLE

СвежийSource: Space-Track

Эпоха: Sep 13, 2026, 19:48 UTC

1 30106U 99025RK  26256.82504007  .00103072  00000-0  45069-2 0  9991
2 30106  98.9113 209.8486 0026359  32.4283  23.9288 15.21318752 26619

Отслеживайте FENGYUN 1C DEB в реальном времени с AllMySat

Download on the App Store